Starlink 30811

operational
NORAD ID: 58167 Int'l Des: 2023-166 Owner: SPXS Country: US Constellation: starlink
LEOCIRCULAR

Starlink 30811について

説明を読み込み中...

リアルタイム位置

3D地球を読み込み中...

次回通過

高度履歴

Altitude vs Time

uPlot chart will show altitude changes over time

軌道要素

1 58167U 23166T 25306.92255811 .00002063 00000-0 81789-4 0 9992
2 58167 53.1591 88.2254 0001061 87.4140 272.6982 15.30193040113629
Epoch: Nov 2, 2025 • Age: 37 hours

現在のステータス

高度 479.9 km
速度 7.63 km/s
衛星直下点 -16.30°S, 63.71°E
打ち上げ日 Oct 29, 2023
運用期間 2 years
タイプ internet

技術仕様

分類 Payload
質量 730.00 kg
乾燥質量 700.00 kg
総質量 730.00 kg
長さ 0.30 m
直径 4.10 m
スパン 29.00 m
形状 Box + pan
製造者 SPXS
バスタイプ Starlink V2M
フェーズステータス In Orbit
所有者/国 SPXS/US

大規模コンステレーション

Loading constellations...